Flag for U.S.A. Weather past 2 weeks in Greeley, Colorado, U.S.A.

Now
46 °F

Low clouds.


Feels Like: 41 °F
Forecast: 47 / 53 °F
Wind: 10 mph from Southeast

Location: Greeley / Weld

Current Time: May 5, 2015 at 7:27:14 AM

Latest Report: May 5, 2015 at 6:55 AM


Visibility: 2 mi

Pressure: 30.01 "Hg

Humidity: 87%

Dew point: 43 °F

Location of GreeleyLocation

Historic Weather in Greeley — Graph

°F

Greeley temperature yesterday

Maximum temperature yesterday: 63 °F (at 4:35 PM)
Minimum temperature yesterday: 46 °F (at 12:15 AM)
Average temperature yesterday: 53 °F

Past Weeks' High & Low Weather Summary

 TemperatureHumidityPressure
High81 °F (Apr 30, 12:15 PM)87% (Apr 26, 7:35 AM)30.37 "Hg (Apr 26, 7:35 AM)
Low34 °F (Apr 20, 6:15 AM)18% (Apr 29, 4:15 PM)29.62 "Hg (Apr 24, 2:55 PM)
Average52 °F59%29.98 "Hg
* Reported Apr 20 6:15 AM — May 5 6:35 AM, Greeley, Weather by CustomWeather, © 2015

Note: Actual official high and low records may vary slightly from our data, if they occured in-between our weather recording intervals... More about our weather records

Advertising

Greeley weather history for previous 24 hours

 ConditionsComfort  
Time TempWeatherWind HumidityBarometerVisibility
6:35 AM
Tue, May 5
46 °FLow clouds.14 mph87%30.01 "Hg1 mi
6:15 AM46 °FLow clouds.10 mph87%30.01 "Hg1 mi
5:55 AM46 °FLow clouds.9 mph87%30.01 "Hg1 mi
5:35 AM46 °FLow clouds.7 mph87%30.01 "Hg1 mi
5:15 AM46 °FLow clouds.8 mph87%30.02 "Hg1 mi
4:55 AM46 °FLow clouds.8 mph87%30.02 "Hg1 mi
4:35 AM46 °FLow clouds.10 mph87%30.03 "Hg1 mi
4:15 AM46 °FLow clouds.9 mph87%30.03 "Hg1 mi
3:55 AM46 °FLow clouds.9 mph87%30.04 "Hg1 mi
3:35 AM46 °FLow clouds.10 mph87%30.04 "Hg1 mi
3:15 AM46 °FLow clouds.9 mph87%30.03 "Hg1 mi
2:55 AM46 °FLow clouds.10 mph87%30.05 "Hg3 mi
2:35 AM46 °FLow clouds.10 mph87%30.05 "Hg4 mi
2:15 AM46 °FLow clouds.8 mph87%30.05 "Hg4 mi
1:55 AM46 °FLow clouds.9 mph87%30.06 "Hg5 mi
1:35 AM46 °FLow clouds.8 mph87%30.06 "Hg5 mi
1:15 AM46 °FLow clouds.9 mph87%30.07 "Hg6 mi
12:55 AM46 °FLow clouds.7 mph87%30.07 "Hg6 mi
12:35 AM46 °FLow clouds.9 mph87%30.08 "Hg5 mi
12:15 AM46 °FLow clouds.8 mph87%30.09 "Hg5 mi
11:55 PM
Mon, May 4
48 °FLow clouds.9 mph82%30.10 "Hg5 mi
11:35 PM48 °FLow clouds.7 mph82%30.10 "Hg4 mi
11:15 PM48 °FLow clouds.12 mph82%30.11 "Hg10 mi
10:55 PM50 °FPassing clouds.14 mph76%30.11 "Hg10 mi
10:35 PM48 °FPassing clouds.12 mph82%30.11 "Hg10 mi
10:15 PM48 °FPartly cloudy.10 mph76%30.11 "Hg10 mi
9:55 PM50 °FOvercast.9 mph71%30.11 "Hg10 mi
9:15 PM52 °FPassing clouds.17 mph72%30.10 "Hg10 mi
8:55 PM52 °FPartly sunny.17 mph72%30.10 "Hg10 mi
8:35 PM54 °FBroken clouds.20 mph67%30.09 "Hg10 mi
8:15 PM54 °FPartly sunny.17 mph67%30.09 "Hg10 mi
7:55 PM55 °FBroken clouds.20 mph63%30.07 "Hg10 mi
7:35 PM57 °FBroken clouds.18 mph59%30.06 "Hg10 mi
7:15 PM57 °FMore clouds than sun.18 mph63%30.06 "Hg10 mi
6:55 PM57 °FMostly cloudy.20 mph63%30.06 "Hg10 mi
6:35 PM59 °FCloudy.13 mph59%30.06 "Hg10 mi
6:15 PM59 °FBroken clouds.14 mph59%30.06 "Hg10 mi
5:55 PM59 °FBroken clouds.14 mph59%30.06 "Hg10 mi
5:35 PM59 °FBroken clouds.12 mph59%30.06 "Hg10 mi
5:15 PM59 °FPartly sunny.12 mph59%30.06 "Hg10 mi
4:55 PM61 °FPassing clouds.13 mph55%30.06 "Hg10 mi
4:35 PM63 °FPassing clouds.12 mph56%30.06 "Hg10 mi
4:15 PM61 °FPartly sunny.10 mph59%30.07 "Hg10 mi
3:55 PM59 °FMostly cloudy.10 mph59%30.09 "Hg10 mi
2:55 PM59 °FBroken clouds.8 mph59%30.10 "Hg10 mi
2:35 PM59 °FBroken clouds.7 mph59%30.10 "Hg10 mi
2:15 PM59 °FScattered clouds.7 mph59%30.11 "Hg10 mi
1:55 PM57 °FPartly sunny.10 mph63%30.11 "Hg10 mi
1:35 PM55 °FPartly sunny.10 mph63%30.12 "Hg10 mi
1:15 PM54 °FPartly sunny.8 mph67%30.13 "Hg10 mi
12:55 PM55 °FBroken clouds.12 mph63%30.13 "Hg10 mi
12:35 PM55 °FPartly sunny.8 mph63%30.14 "Hg10 mi
12:15 PM55 °FBroken clouds.8 mph63%30.14 "Hg10 mi
11:55 AM54 °FMore clouds than sun.8 mph63%30.15 "Hg10 mi
11:35 AM54 °FOvercast.9 mph63%30.15 "Hg10 mi
11:15 AM52 °FOvercast.10 mph67%30.15 "Hg10 mi
10:55 AM52 °FMostly cloudy.9 mph62%30.16 "Hg10 mi
10:35 AM52 °FMore clouds than sun.7 mph62%30.16 "Hg10 mi
10:15 AM54 °FOvercast.10 mph58%30.15 "Hg10 mi
9:55 AM52 °FBroken clouds.13 mph62%30.15 "Hg10 mi
9:35 AM52 °FPartly sunny.10 mph62%30.15 "Hg10 mi
9:15 AM52 °FMostly cloudy.10 mph62%30.15 "Hg10 mi
8:55 AM52 °FPartly sunny.10 mph62%30.15 "Hg10 mi
8:35 AM52 °FPartly sunny.10 mph62%30.14 "Hg10 mi
8:15 AM52 °FBroken clouds.7 mph62%30.14 "Hg10 mi
7:55 AM50 °FPartly sunny.9 mph67%30.14 "Hg10 mi
7:35 AM50 °FPartly sunny.8 mph67%30.14 "Hg10 mi
7:15 AM48 °FMostly cloudy.6 mph71%30.14 "Hg10 mi
Weather by CustomWeather, © 2015

See weather overviewHow to use our weather pages